Location: Clover
(42.5131°N, 114.6874°W)
Time: 14:21:18
(UTC+00:00)

Transit 2A Rocket - Pass Details

Date: 07 November 2024
Orbit: 585 x 904 km, 66.7° (Epoch: 02 December)

Event Time Altitude Azimuth Distance (km) Brightness Sun altitude
Rises 01:07:00 0° 338° (NNW) 3,348 8.4 -8.2°
Reaches altitude 10° 01:10:48 10° 3° (N) 2,339 7.3 -8.9°
Maximum altitude 01:13:32 14° 34° (NE) 2,015 6.8 -9.4°
Enters shadow 01:15:38 11° 60° (ENE) 2,139 6.7 -9.8°
